Torna al catalogo

STARLINK-37154

AttivoComunicazioniSSO
NORAD 68316·PAYLOAD·🇺🇸 United States

Lanciato Mar 20, 2026 da Vandenberg Space Force Base

Loading…

Prossimi Passaggi (prossime 24 ore)

TLE

AggiornatoSource: CelesTrak SupGP

Epoca: Sep 15, 2026, 04:07 UTC

1 68316C 26057Y   26258.17201389 -.00010152  00000+0 -31509-3 0  2587
2 68316  97.2850  23.5756 0001138  93.0028 224.2289 15.33451036    11

Traccia STARLINK-37154 in tempo reale con AllMySat

Download on the App Store